Regional Weather Roundup
Issued by NWS Albany, NY

Home | Current Version | Previous Version | Graphics & Text | Print | Product List | Glossary Off
Versions: 1 2 3 4 5 6 7 8 9 10 11 12 13 14 15 16 17 18 19 20 21 22 23 24 25 26 27 28 29 30 31 32 33 34 35 36 37 38 39 40 41 42 43 44 45 46 47 48 49 50

000
ASUS41 KALY 271710
RWRALY

NEW YORK STATE HOURLY WEATHER ROUNDUP
NATIONAL WEATHER SERVICE ALBANY NY
100 PM EDT WED MAY 27 2015

NOTE: "FAIR" INDICATES FEW OR NO CLOUDS BELOW 12,000 FEET WITH NO
SIGNIFICANT WEATHER AND/OR NO OBSTRUCTIONS TO VISIBILITY.

NYZ032-033-038>043-046>054-057>066-NYZ062>081-271800-
EAST


CITY           SKY/WX    TMP DP  RH WIND       PRES   REMARKS
ALBANY         MOSUNNY   87  67  51 S18G24    30.04F HX  90
GLENS FALLS    PTSUNNY   81  68  64 S12       30.03
POUGHKEEPSIE   MOSUNNY   84  68  58 S10       30.11F
NEWBURGH       PTSUNNY   81  70  69 SW12      30.14F
MONTGOMERY     CLOUDY    81  69  67 SW14      30.12F
WHITE PLAINS   PTSUNNY   78  67  68 SE13      30.16F
ISLIP          CLOUDY    73  63  70 SW14G21   30.18F
NEW YORK CITY  MOSUNNY   79  64  60 S12       30.16F
CENTRAL PARK   MOSUNNY   82  65  56 MISG      30.18F
$$

NYZ005>009-017-018-044>046-055-056-271800-
CENTRAL


CITY           SKY/WX    TMP DP  RH WIND       PRES   REMARKS
FULTON         CLOUDY    78  63  59 SW13G22   30.05R
SYRACUSE       LGT RAIN  79  64  60 SW17G24   30.05R
ROME           PTSUNNY   79  64  60 W14G21    30.05S
ELMIRA         LGT RAIN  75  64  68 SW14G21   30.10S
BINGHAMTON     LGT RAIN  74  64  71 SW10      30.13R
MONTICELLO     MOSUNNY   81  68  65 SW14G20   30.15F
$$

NYZ026>034-041>043-271800-
NORTH


CITY           SKY/WX    TMP DP  RH WIND       PRES   REMARKS
WATERTOWN      PTSUNNY   79  64  60 W13G26    30.01S
FORT DRUM      NOT AVBL
MASSENA        CLOUDY    79  67  66 SW16G22   29.97S
PLATTSBURGH    LGT RAIN  79  67  66 S15G24    29.93F
$$

NYZ001>004-010>016-019>021-271800-
WEST


CITY           SKY/WX    TMP DP  RH WIND       PRES   REMARKS
NIAGARA FALLS  PTSUNNY   78  61  55 SW18G30   30.02F
BUFFALO        MOSUNNY   77  60  55 SW21G28   30.04S
DUNKIRK        LGT RAIN  77  63  61 SW8       30.05F
JAMESTOWN      PTSUNNY   72  61  68 SW9G16    30.11F
WELLSVILLE     PTSUNNY   74  60  61 SW15G29   30.14F
ROCHESTER      CLOUDY    78  64  61 W10       30.03S
PENN YAN       CLOUDY    77  62  59 S14       30.08S
$$

             KEY
       WCI = WIND CHILL INDEX
       VSB = VISIBILITY
       HX  = HEAT INDEX
$$



USA.gov is the U.S. government's official web portal to all federal, state and local government web resources and services.